DW5080 Weather Reports


time (UTC)temp
C
wind
direction
speed
KPH
gust
KPH
rain 1hr
cm
rain 24hr
cm
rain mn
cm
humidity
%
barometer
mb
20260507010113 5 0 0.0 1.6 0.00 0.74 0.71 97 1010.1
20260507003413 5 0 0.0 3.2 0.00 0.74 0.71 98 1009.6
20260507002513 5 0 0.0 8.0 0.00 0.74 0.71 97 1009.5
20260507001613 5 0 0.0 8.0 0.00 0.74 0.71 97 1009.4
20260506235813 5 0 0.0 4.8 0.00 0.74 0.71 97 1009.2
20260506234913 6 0 0.0 1.6 0.00 0.74 0.71 97 1009.2
20260506234013 6 0 0.0 1.6 0.00 0.74 0.71 97 1009.1
20260506233113 6 0 0.0 3.2 0.00 0.74 0.71 97 1009.0
20260506232213 6 0 0.0 1.6 0.00 0.74 0.71 97 1009.1
20260506231313 6 282 0.0 4.8 0.00 0.74 0.71 97 1008.9
20260506230413 6 303 1.6 9.7 0.00 0.74 0.71 97 1008.8
20260506225513 6 290 1.6 9.7 0.00 0.74 0.71 97 1008.8
20260506224613 6 297 1.6 8.0 0.00 0.74 0.71 97 1008.8
20260506223713 6 301 1.6 4.8 0.00 0.74 0.71 97 1008.5
20260506222813 6 296 1.6 9.7 0.00 0.74 0.71 97 1008.2
20260506221913 6 296 1.6 6.4 0.00 0.74 0.71 97 1008.1
20260506221013 6 302 1.6 8.0 0.00 0.74 0.71 97 1007.9
20260506220113 6 301 1.6 16.1 0.00 0.74 0.71 98 1007.9
20260506215213 6 290 1.6 6.4 0.00 0.74 0.71 97 1008.0
20260506213413 7 304 1.6 9.7 0.00 0.74 0.71 98 1007.9
20260506212513 7 301 3.2 9.7 0.00 0.74 0.71 98 1007.7
20260506211613 7 314 3.2 11.3 0.00 0.74 0.71 97 1007.4
20260506205813 7 299 1.6 9.7 0.03 0.74 0.71 97 1007.1
20260506204913 7 304 1.6 9.7 0.03 0.74 0.71 97 1007.0
20260506204013 7 294 0.0 12.9 0.03 0.74 0.71 97 1006.8
20260506203113 7 0 0.0 3.2 0.05 0.74 0.71 97 1006.6
20260506202213 7 296 1.6 6.4 0.05 0.74 0.71 97 1006.2
20260506201313 7 288 1.6 4.8 0.03 0.71 0.69 97 1006.2
20260506195513 8 315 3.2 12.9 0.03 0.86 0.69 97 1006.3
20260506193713 8 307 1.6 11.3 0.03 0.86 0.69 97 1006.1
20260506192813 8 295 1.6 6.4 0.00 0.84 0.66 97 1005.9
20260506191913 8 299 1.6 6.4 0.03 0.84 0.66 96 1006.0
20260506191013 8 303 1.6 11.3 0.03 0.84 0.66 96 1005.7
20260506190113 8 293 1.6 6.4 0.03 0.84 0.66 96 1005.6
20260506185213 8 300 1.6 8.0 0.03 0.84 0.66 96 1005.6
20260506184313 9 291 3.2 8.0 0.03 0.84 0.66 95 1005.6
20260506183413 9 297 3.2 9.7 0.03 0.84 0.66 94 1005.6
20260506182513 10 308 4.8 12.9 0.03 0.84 0.66 94 1005.4
20260506181613 11 319 4.8 22.5 0.00 0.81 0.64 92 1005.2
20260506180713 13 221 4.8 22.5 0.00 0.81 0.64 94 1005.0
20260506175813 13 195 4.8 16.1 0.00 0.81 0.64 94 1004.8
20260506174913 13 196 6.4 16.1 0.00 0.81 0.64 95 1004.8
20260506174013 13 198 6.4 16.1 0.00 0.81 0.64 95 1004.8
20260506173113 13 194 6.4 17.7 0.00 0.81 0.64 95 1004.8
20260506171313 13 203 6.4 19.3 0.03 0.81 0.64 95 1004.8
20260506170413 13 193 6.4 17.7 0.03 0.81 0.64 96 1005.0
20260506164613 13 193 6.4 14.5 0.03 0.81 0.64 96 1005.1
20260506162813 13 182 6.4 12.9 0.05 0.81 0.64 96 1004.9
20260506161913 12 181 6.4 17.7 0.05 0.79 0.61 96 1005.2
20260506161013 12 183 8.0 12.9 0.05 0.79 0.61 96 1005.1
20260506160113 12 184 6.4 12.9 0.08 0.79 0.61 96 1005.2
20260506155213 12 183 8.0 12.9 0.08 0.79 0.61 96 1005.3
20260506154313 12 176 8.0 19.3 0.08 0.79 0.61 96 1005.2
20260506153413 12 184 8.0 19.3 0.08 0.79 0.61 96 1005.4
20260506152513 12 184 9.7 19.3 0.08 0.76 0.58 96 1005.4
20260506151613 12 182 9.7 16.1 0.05 0.74 0.56 96 1005.5
20260506144913 12 168 4.8 12.9 0.10 0.71 0.53 97 1005.1
20260506144013 12 170 4.8 9.7 0.10 0.71 0.53 97 1005.1
20260506143113 12 165 4.8 9.7 0.13 0.71 0.53 97 1005.3
20260506142213 12 170 3.2 9.7 0.15 0.69 0.51 97 1005.3
20260506141313 12 167 1.6 11.3 0.18 0.69 0.51 97 1005.3
20260506140413 12 150 1.6 9.7 0.18 0.66 0.48 97 1005.2
20260506134613 12 141 1.6 4.8 0.20 0.61 0.43 97 1005.4
20260506133713 12 159 3.2 8.0 0.23 0.58 0.41 96 1005.7
20260506132813 12 163 3.2 9.7 0.23 0.56 0.38 96 1005.9
20260506131913 12 152 1.6 9.7 0.18 0.51 0.36 96 1006.0
20260506131013 12 167 4.8 11.3 0.20 0.51 0.33 96 1006.3
20260506130113 12 177 6.4 14.5 0.15 0.46 0.28 97 1006.3
20260506125213 11 185 3.2 11.3 0.10 0.41 0.23 97 1006.6
20260506124313 11 182 1.6 6.4 0.10 0.38 0.20 97 1006.3
20260506123413 11 0 0.0 6.4 0.08 0.36 0.18 97 1006.0
20260506122513 11 0 0.0 1.6 0.05 0.33 0.15 97 1006.1
20260506121613 11 0 0.0 3.2 0.05 0.33 0.15 97 1006.0
20260506120713 11 0 0.0 1.6 0.05 0.30 0.13 97 1006.0
20260506115813 11 0 0.0 1.6 0.05 0.30 0.13 97 1006.1
20260506114913 11 0 0.0 1.6 0.05 0.30 0.13 97 1006.2
20260506113113 11 0 0.0 3.2 0.05 0.28 0.10 97 1006.1
20260506112213 11 0 0.0 1.6 0.05 0.28 0.10 97 1006.2
20260506111313 11 0 0.0 1.6 0.05 0.28 0.10 97 1006.3
20260506105513 11 0 0.0 0.0 0.08 0.25 0.08 97 1006.3
20260506104613 11 0 0.0 0.0 0.08 0.25 0.08 97 1006.4
20260506103713 11 0 0.0 0.0 0.05 0.23 0.05 96 1006.3
20260506101913 10 0 0.0 0.0 0.05 0.23 0.05 96 1006.1
20260506101013 10 0 0.0 0.0 0.03 0.20 0.03 96 1006.0
20260506100113 10 0 0.0 0.0 0.00 0.18 0.00 96 1005.9
20260506095213 10 0 0.0 0.0 0.00 0.18 0.00 96 1005.8
20260506094313 10 0 0.0 0.0 0.00 0.18 0.00 96 1005.6
20260506093413 10 0 0.0 0.0 0.00 0.18 0.00 96 1005.6
20260506092513 10 0 0.0 0.0 0.00 0.18 0.00 96 1005.7
20260506090713 10 0 0.0 0.0 0.00 0.18 0.00 96 1006.0
20260506085813 10 0 0.0 1.6 0.00 0.18 0.00 96 1006.1
20260506084913 10 0 0.0 1.6 0.00 0.18 0.00 95 1006.2
20260506081313 11 0 0.0 0.0 0.00 0.18 0.00 95 1006.0
20260506080413 11 0 0.0 0.0 0.00 0.18 0.00 95 1006.0
20260506072813 11 0 0.0 1.6 0.00 0.18 0.00 93 1006.1
20260506071013 10 0 0.0 0.0 0.00 0.18 0.00 93 1006.2
20260506070113 10 0 0.0 0.0 0.00 0.18 0.00 93 1006.3
20260506062513 10 0 0.0 0.0 0.00 0.18 0.00 93 1006.8
20260506061613 10 0 0.0 0.0 0.00 0.18 0.00 93 1006.8
20260506060713 10 0 0.0 1.6 0.00 0.18 0.00 92 1007.1
20260506050413 11 0 0.0 0.0 0.00 0.18 0.00 92 1008.0
20260506044613 11 0 0.0 0.0 0.00 0.18 0.00 92 1008.1
20260506043713 11 37 0.0 6.4 0.00 0.18 0.00 91 1008.0
20260506042813 11 29 1.6 11.3 0.00 0.18 0.00 91 1007.9
20260506041913 11 28 0.0 11.3 0.00 0.18 0.00 91 1007.9
20260506035213 12 0 0.0 3.2 0.00 0.18 0.18 92 1008.4
20260506034313 12 326 1.6 3.2 0.00 0.18 0.18 92 1008.7
20260506033413 12 343 1.6 11.3 0.00 0.18 0.18 93 1008.5
20260506032513 12 2 1.6 8.0 0.00 0.18 0.18 94 1008.5
20260506031613 12 330 0.0 3.2 0.00 0.18 0.18 94 1008.4
20260506030713 12 332 1.6 3.2 0.00 0.18 0.18 94 1008.3
20260506025813 12 325 1.6 6.4 0.03 0.18 0.18 94 1008.4
20260506024913 13 322 1.6 8.0 0.03 0.18 0.18 94 1008.3
20260506024013 13 311 0.0 8.0 0.03 0.18 0.18 95 1008.3
20260506023113 13 0 0.0 4.8 0.03 0.18 0.18 95 1008.0
20260506022213 13 0 0.0 4.8 0.03 0.18 0.18 95 1008.1
20260506021313 13 0 0.0 3.2 0.03 0.18 0.18 95 1008.1
20260506015513 14 0 0.0 3.2 0.00 0.15 0.15 94 1007.8
20260506013713 14 0 0.0 4.8 0.00 0.15 0.15 94 1007.6
20260506011913 14 0 0.0 0.0 0.00 0.15 0.15 94 1007.6
20260506011013 14 0 0.0 3.2 0.00 0.15 0.15 94 1007.3